Location: Bosdarros
(43.2167°N, 0.3667°W)
Time: 13:25:50
(UTC+00:00)

Cosmos 2219 - Visible Passes

Search period start: 25 July 2021 00:00
Search period end: 04 August 2021 00:00
Orbit: 832 x 861 km, 71.1° (Epoch: 24 July)

Date Brightness Start Highest point End Pass type
(mag) Time Alt. Az. Time Alt. Az. Time Alt. Az.
25 Jul 3.1 01:28:52 62° SSW 01:29:54 89° ESE 01:35:42 10° NNE visible
25 Jul 5.2 03:11:07 10° W 03:14:52 17° NW 03:18:39 10° N visible
25 Jul 5.4 23:33:45 12° E 23:33:45 12° E 23:35:17 10° ENE visible
26 Jul 3.1 01:15:40 70° SSW 01:16:24 87° ESE 01:22:11 10° NNE visible
26 Jul 5.2 02:57:35 10° W 03:01:20 18° NW 03:05:10 10° N visible
26 Jul 5.5 23:20:31 11° E 23:20:31 11° E 23:21:36 10° ENE visible
27 Jul 3.0 01:02:25 76° S 01:02:53 85° ESE 01:08:41 10° NNE visible
27 Jul 5.2 02:44:20 11° W 02:47:48 18° NW 02:51:42 10° N visible
27 Jul 5.5 23:07:15 11° E 23:07:15 11° E 23:07:55 10° ENE visible
28 Jul 3.1 00:49:09 81° SSE 00:49:22 83° ESE 00:55:10 10° NNE visible
28 Jul 5.2 02:31:04 12° W 02:34:16 19° NW 02:38:14 10° N visible
28 Jul 5.5 22:53:57 10° E 22:53:57 10° E 22:54:12 10° E visible
29 Jul 3.1 00:35:52 81° ESE 00:35:52 81° ESE 00:41:39 10° NNE visible
29 Jul 5.2 02:17:46 13° W 02:20:44 19° NW 02:24:45 10° N visible
30 Jul 3.2 00:22:32 78° E 00:22:32 78° E 00:28:08 10° NNE visible
30 Jul 5.2 02:04:26 14° W 02:07:13 19° NW 02:11:16 10° N visible
31 Jul 3.2 00:09:11 75° ENE 00:09:11 75° ENE 00:14:37 10° NNE visible
31 Jul 5.1 01:51:05 15° W 01:53:41 20° NW 01:57:48 10° N visible
31 Jul 3.3 23:55:48 71° ENE 23:55:48 71° ENE 00:01:07 10° NNE visible
01 Aug 5.1 01:37:42 16° W 01:40:09 20° NW 01:44:19 10° N visible
01 Aug 3.3 23:42:23 68° ENE 23:42:23 68° ENE 23:47:36 10° NNE visible
02 Aug 5.1 01:24:17 16° W 01:26:37 20° NW 01:30:50 10° N visible
02 Aug 3.3 23:28:55 66° ENE 23:28:55 66° ENE 23:34:05 10° NNE visible
03 Aug 5.1 01:10:50 17° WNW 01:13:06 21° NW 01:17:22 10° N visible
03 Aug 3.3 23:15:26 65° ENE 23:15:26 65° ENE 23:20:35 10° NNE visible
